Location: Bad Dürkheim
(49.4618°N, 8.1724°E)
Time: 05:03:30
(UTC+00:00)

CZ-2C R/B - Pass Details

Date: 14 June 2025
Orbit: 701 x 903 km, 98.2° (Epoch: 12 July)

Event Time Altitude Azimuth Distance (km) Brightness Sun altitude
Rises 23:47:00 0° 19° (NNE) 3,439 7.9 -17.1°
Reaches altitude 10° 23:49:37 10° 28° (NNE) 2,468 6.7 -17.1°
Maximum altitude 23:54:41 38° 95° (E) 1,225 4.0 -17.0°
Enters shadow 23:57:35 21° 150° (SSE) 1,707 4.3 -16.9°
